Home   Weather   Turaif   Past weeks

Flag for Saudi Arabia Past Weather in Turaif, Saudi Arabia — Yesterday and Last 2 Weeks

Now
73 °F

Clear.


Feels Like: 77 °F
Forecast: 62 / 87 °F
Wind: 9 mph from West

Location: Turaif

Current Time: Sep 27, 2016 at 1:36:02 AM

Latest Report: Sep 27, 2016 at 1:00 AM


Visibility: 10 mi

Pressure: 29.92 "Hg (27.20 "Hg at 827m altitude)

Humidity: 41%

Dew Point: 48 °F

Location of TuraifLocation

Past Weather in Turaif — Graph

°F

Turaif Temperature Yesterday

Maximum temperature yesterday: 93 °F (at 4:00 PM)
Minimum temperature yesterday: 64 °F (at 6:00 AM)
Average temperature yesterday: 79 °F

High & Low Weather Summary for the Past Weeks

 TemperatureHumidityPressure
High100 °F (Sep 13, 3:00 PM)77% (Sep 24, 5:00 AM)30.07 "Hg (Sep 24, 5:00 AM)
Low63 °F (Sep 23, 6:00 AM)13% (Sep 12, 5:00 PM)29.83 "Hg (Sep 25, 4:00 PM)
Average80 °F33%29.94 "Hg
* Reported Sep 12 12:00 AM — Sep 27 12:00 AM, Turaif, Weather by CustomWeather, © 2016

Note: Actual official high and low records may vary slightly from our data, if they occured in-between our weather recording intervals... More about our weather records

Advertising

Turaif Weather History for the Previous 24 Hours

Scroll right to see more
 ConditionsComfort  
Time TempWeatherWind HumidityBarometerVisibility
12:00 AM
Tue, Sep 27
75 °FClear.9 mph39%29.92 "Hg10 mi
11:00 PM
Mon, Sep 26
77 °FClear.9 mph36%29.92 "Hg10 mi
10:00 PM79 °FClear.12 mph34%29.92 "Hg10 mi
9:00 PM81 °FClear.9 mph30%29.92 "Hg10 mi
8:00 PM81 °FClear.12 mph32%29.89 "Hg10 mi
7:00 PM84 °FSunny.9 mph27%29.86 "Hg10 mi
6:00 PM88 °FSunny.7 mph22%29.86 "Hg10 mi
5:00 PM91 °FSunny.9 mph20%29.86 "Hg10 mi
4:00 PM93 °FSunny.9 mph19%29.86 "Hg10 mi
3:00 PM91 °FSunny.7 mph20%29.89 "Hg10 mi
2:00 PM90 °FSunny.7 mph20%29.89 "Hg10 mi
1:00 PM90 °FSunny.15 mph21%29.89 "Hg5 mi
12:00 PM88 °FSunny.15 mph22%29.89 "Hg5 mi
11:00 AM84 °FSunny.21 mph23%29.92 "Hg4 mi
10:00 AM81 °FSandstorm.21 mph24%29.95 "Hg2 mi
9:00 AM77 °FSunny.14 mph24%29.95 "Hg10 mi
8:00 AM70 °FSunny.9 mph27%29.92 "Hg10 mi
7:00 AM64 °FClear.9 mph34%29.92 "Hg10 mi
6:00 AM64 °FClear.7 mph34%29.92 "Hg10 mi
5:00 AM66 °FClear.12 mph35%29.89 "Hg10 mi
4:00 AM68 °FClear.12 mph33%29.89 "Hg10 mi
3:00 AM70 °FClear.9 mph33%29.89 "Hg10 mi
2:00 AM70 °FClear.9 mph35%29.89 "Hg10 mi
1:00 AM72 °FClear.12 mph36%29.89 "Hg10 mi
Weather by CustomWeather, © 2016

See weather overviewHow to use our weather pages